Time,TemperatureF,DewpointF,PressureIn,WindDirection,WindDirectionDegrees,WindSpeedMPH,WindSpeedGustMPH,Humidity,HourlyPrecipIn,Conditions,Clouds,dailyrainin,SolarRadiationWatts/m^2,SoftwareType,DateUTC
2013-04-13 00:04:00,73.0,61.0,-100.00,NE,38,3.0,8.0,66,0.00,,,0.01,0.000000,,2013-04-13 10:04:00,
2013-04-13 00:15:00,73.0,61.0,-100.00,NE,38,3.0,8.0,66,0.00,,,0.01,0.000000,,2013-04-13 10:15:00,
2013-04-13 00:23:00,73.0,61.0,-100.00,NE,38,3.0,8.0,66,0.00,,,0.01,0.000000,,2013-04-13 10:23:00,
2013-04-13 00:35:00,73.0,61.0,-100.00,NE,38,3.0,8.0,66,0.00,,,0.01,0.000000,,2013-04-13 10:35:00,
2013-04-13 00:43:00,73.0,61.0,-100.00,NE,38,3.0,8.0,66,0.00,,,0.01,0.000000,,2013-04-13 10:43:00,
2013-04-13 01:05:00,73.0,62.0,-100.00,North,6,4.0,6.0,68,0.00,,,0.01,0.000000,,2013-04-13 11:05:00,
2013-04-13 01:13:00,73.0,62.0,-100.00,North,6,4.0,6.0,68,0.00,,,0.01,0.000000,,2013-04-13 11:13:00,
2013-04-13 01:23:00,73.0,62.0,-100.00,North,6,4.0,6.0,68,0.00,,,0.01,0.000000,,2013-04-13 11:23:00,
2013-04-13 01:33:00,73.0,62.0,-100.00,North,6,4.0,6.0,68,0.00,,,0.01,0.000000,,2013-04-13 11:33:00,
2013-04-13 01:43:00,73.0,62.0,-100.00,North,6,4.0,6.0,68,0.00,,,0.01,0.000000,,2013-04-13 11:43:00,
2013-04-13 01:44:00,72.0,61.0,-100.00,North,0,0.0,7.0,68,0.00,,,0.01,0.000000,,2013-04-13 11:44:00,
2013-04-13 02:14:00,72.0,61.0,-100.00,North,0,0.0,7.0,68,0.00,,,0.01,0.000000,,2013-04-13 12:14:00,
2013-04-13 02:23:00,72.0,61.0,-100.00,North,0,0.0,7.0,68,0.00,,,0.01,0.000000,,2013-04-13 12:23:00,
2013-04-13 02:34:00,72.0,61.0,-100.00,North,0,0.0,7.0,68,0.00,,,0.01,0.000000,,2013-04-13 12:34:00,
2013-04-13 02:44:00,73.0,62.0,-100.00,NW,323,2.0,4.0,69,0.00,,,0.01,0.000000,,2013-04-13 12:44:00,
2013-04-13 03:05:00,73.0,62.0,-100.00,NW,323,2.0,4.0,69,0.00,,,0.01,0.000000,,2013-04-13 13:05:00,
2013-04-13 03:14:00,73.0,62.0,-100.00,NW,323,2.0,4.0,69,0.00,,,0.01,0.000000,,2013-04-13 13:14:00,
2013-04-13 03:23:00,73.0,62.0,-100.00,NW,323,2.0,4.0,69,0.00,,,0.01,0.000000,,2013-04-13 13:23:00,
2013-04-13 03:33:00,73.0,62.0,-100.00,NW,323,2.0,4.0,69,0.00,,,0.01,0.000000,,2013-04-13 13:33:00,
2013-04-13 03:44:00,71.0,61.0,-100.00,NNE,33,3.0,5.0,70,0.00,,,0.01,0.000000,,2013-04-13 13:44:00,
2013-04-13 04:13:00,71.0,61.0,-100.00,NNE,33,3.0,5.0,70,0.00,,,0.01,0.000000,,2013-04-13 14:13:00,
2013-04-13 04:23:00,71.0,61.0,-100.00,NNE,33,3.0,5.0,70,0.00,,,0.01,0.000000,,2013-04-13 14:23:00,
2013-04-13 04:35:00,71.0,61.0,-100.00,NNE,33,3.0,5.0,70,0.00,,,0.01,0.000000,,2013-04-13 14:35:00,
2013-04-13 05:04:00,70.0,61.0,-100.00,NE,53,5.0,9.0,73,0.01,,,0.02,1.000000,,2013-04-13 15:04:00,
2013-04-13 05:14:00,70.0,61.0,-100.00,NE,53,5.0,9.0,73,0.01,,,0.02,1.000000,,2013-04-13 15:14:00,
2013-04-13 05:25:00,70.0,61.0,-100.00,NE,53,5.0,9.0,73,0.01,,,0.02,1.000000,,2013-04-13 15:25:00,
2013-04-13 05:34:00,70.0,61.0,-100.00,NE,53,5.0,9.0,73,0.01,,,0.02,1.000000,,2013-04-13 15:34:00,
2013-04-13 05:43:00,70.0,61.0,-100.00,NE,53,5.0,9.0,73,0.01,,,0.02,1.000000,,2013-04-13 15:43:00,
2013-04-13 05:44:00,70.0,62.0,-100.00,NNE,22,7.0,12.0,76,0.00,,,0.02,2.000000,,2013-04-13 15:44:00,
2013-04-13 06:14:00,70.0,62.0,-100.00,NNE,22,7.0,12.0,76,0.00,,,0.02,2.000000,,2013-04-13 16:14:00,
2013-04-13 06:24:00,70.0,62.0,-100.00,NNE,22,7.0,12.0,76,0.00,,,0.02,2.000000,,2013-04-13 16:24:00,
2013-04-13 06:34:00,70.0,62.0,-100.00,NNE,22,7.0,12.0,76,0.00,,,0.02,2.000000,,2013-04-13 16:34:00,
2013-04-13 07:19:00,70.0,62.0,-100.00,North,9,3.0,11.0,76,0.00,,,0.01,9.000000,,2013-04-13 17:19:00,
2013-04-13 07:35:00,70.0,62.0,-100.00,North,9,3.0,11.0,76,0.00,,,0.01,9.000000,,2013-04-13 17:35:00,
2013-04-13 07:43:00,70.0,62.0,-100.00,North,9,3.0,11.0,76,0.00,,,0.01,9.000000,,2013-04-13 17:43:00,
2013-04-13 08:05:00,73.0,61.0,-100.00,North,356,11.0,13.0,67,0.00,,,0.01,84.000000,,2013-04-13 18:05:00,
2013-04-13 08:14:00,73.0,61.0,-100.00,North,356,11.0,13.0,67,0.00,,,0.01,84.000000,,2013-04-13 18:14:00,
2013-04-13 08:23:00,73.0,61.0,-100.00,North,356,11.0,13.0,67,0.00,,,0.01,84.000000,,2013-04-13 18:23:00,
2013-04-13 08:32:00,73.0,61.0,-100.00,North,356,11.0,13.0,67,0.00,,,0.01,84.000000,,2013-04-13 18:32:00,
2013-04-13 08:42:00,73.0,61.0,-100.00,North,356,11.0,13.0,67,0.00,,,0.01,84.000000,,2013-04-13 18:42:00,
2013-04-13 09:12:00,80.0,63.0,-100.00,South,180,4.0,15.0,57,0.00,,,0.01,458.000000,,2013-04-13 19:12:00,
2013-04-13 09:22:00,80.0,63.0,-100.00,South,180,4.0,15.0,57,0.00,,,0.01,458.000000,,2013-04-13 19:22:00,
2013-04-13 09:32:00,80.0,63.0,-100.00,South,180,4.0,15.0,57,0.00,,,0.01,458.000000,,2013-04-13 19:32:00,
2013-04-13 09:42:00,80.0,63.0,-100.00,South,180,4.0,15.0,57,0.00,,,0.01,458.000000,,2013-04-13 19:42:00,
2013-04-13 10:02:00,80.0,65.0,-100.00,ESE,115,7.0,9.0,60,0.00,,,0.01,583.000000,,2013-04-13 20:02:00,
2013-04-13 10:12:00,80.0,65.0,-100.00,ESE,115,7.0,9.0,60,0.00,,,0.01,583.000000,,2013-04-13 20:12:00,
2013-04-13 10:22:00,80.0,65.0,-100.00,ESE,115,7.0,9.0,60,0.00,,,0.01,583.000000,,2013-04-13 20:22:00,
2013-04-13 10:32:00,80.0,65.0,-100.00,ESE,115,7.0,9.0,60,0.00,,,0.01,583.000000,,2013-04-13 20:32:00,
2013-04-13 10:42:00,80.0,65.0,-100.00,ESE,115,7.0,9.0,60,0.00,,,0.01,583.000000,,2013-04-13 20:42:00,
2013-04-13 11:02:00,80.0,64.0,-100.00,ESE,109,8.0,11.0,58,0.00,,,0.01,918.000000,,2013-04-13 21:02:00,
2013-04-13 11:12:00,80.0,64.0,-100.00,ESE,109,8.0,11.0,58,0.00,,,0.01,918.000000,,2013-04-13 21:12:00,
2013-04-13 11:22:00,80.0,64.0,-100.00,ESE,109,8.0,11.0,58,0.00,,,0.01,918.000000,,2013-04-13 21:22:00,
2013-04-13 11:32:00,80.0,64.0,-100.00,ESE,109,8.0,11.0,58,0.00,,,0.01,918.000000,,2013-04-13 21:32:00,
2013-04-13 11:43:00,80.0,64.0,-100.00,ESE,109,8.0,11.0,58,0.00,,,0.01,918.000000,,2013-04-13 21:43:00,
2013-04-13 12:02:00,80.0,65.0,-100.00,ESE,112,9.0,11.0,60,0.00,,,0.01,1020.000000,,2013-04-13 22:02:00,
2013-04-13 12:12:00,80.0,65.0,-100.00,ESE,112,9.0,11.0,60,0.00,,,0.01,1020.000000,,2013-04-13 22:12:00,
2013-04-13 12:22:00,80.0,65.0,-100.00,ESE,112,9.0,11.0,60,0.00,,,0.01,1020.000000,,2013-04-13 22:22:00,
2013-04-13 12:32:00,80.0,65.0,-100.00,ESE,112,9.0,11.0,60,0.00,,,0.01,1020.000000,,2013-04-13 22:32:00,
2013-04-13 12:42:00,80.0,65.0,-100.00,ESE,112,9.0,11.0,60,0.00,,,0.01,1020.000000,,2013-04-13 22:42:00,
2013-04-13 13:02:00,82.0,66.0,-100.00,ESE,123,8.0,11.0,59,0.00,,,0.01,1057.000000,,2013-04-13 23:02:00,
2013-04-13 13:12:00,82.0,66.0,-100.00,ESE,123,8.0,11.0,59,0.00,,,0.01,1057.000000,,2013-04-13 23:12:00,
2013-04-13 13:22:00,82.0,66.0,-100.00,ESE,123,8.0,11.0,59,0.00,,,0.01,1057.000000,,2013-04-13 23:22:00,
2013-04-13 13:32:00,82.0,66.0,-100.00,ESE,123,8.0,11.0,59,0.00,,,0.01,1057.000000,,2013-04-13 23:32:00,
2013-04-13 13:41:00,82.0,66.0,-100.00,ESE,123,8.0,11.0,59,0.00,,,0.01,1057.000000,,2013-04-13 23:41:00,
2013-04-13 14:12:00,83.0,67.0,-100.00,ESE,110,6.0,10.0,59,0.00,,,0.01,1114.000000,,2013-04-14 00:12:00,
2013-04-13 14:22:00,83.0,67.0,-100.00,ESE,110,6.0,10.0,59,0.00,,,0.01,1114.000000,,2013-04-14 00:22:00,
2013-04-13 14:32:00,83.0,67.0,-100.00,ESE,110,6.0,10.0,59,0.00,,,0.01,1114.000000,,2013-04-14 00:32:00,
2013-04-13 14:42:00,83.0,67.0,-100.00,ESE,110,6.0,10.0,59,0.00,,,0.01,1114.000000,,2013-04-14 00:42:00,
2013-04-13 15:02:00,83.0,66.0,-100.00,ESE,116,8.0,10.0,57,0.00,,,0.01,931.000000,,2013-04-14 01:02:00,
2013-04-13 15:12:00,83.0,66.0,-100.00,ESE,116,8.0,10.0,57,0.00,,,0.01,931.000000,,2013-04-14 01:12:00,
2013-04-13 15:22:00,83.0,66.0,-100.00,ESE,116,8.0,10.0,57,0.00,,,0.01,931.000000,,2013-04-14 01:22:00,
2013-04-13 15:32:00,83.0,66.0,-100.00,ESE,116,8.0,10.0,57,0.00,,,0.01,931.000000,,2013-04-14 01:32:00,
2013-04-13 15:41:00,83.0,66.0,-100.00,ESE,116,8.0,10.0,57,0.00,,,0.01,931.000000,,2013-04-14 01:41:00,
2013-04-13 16:02:00,79.0,64.0,-100.00,ESE,113,7.0,12.0,61,0.00,,,0.01,428.000000,,2013-04-14 02:02:00,
2013-04-13 16:12:00,79.0,64.0,-100.00,ESE,113,7.0,12.0,61,0.00,,,0.01,428.000000,,2013-04-14 02:12:00,
2013-04-13 16:22:00,79.0,64.0,-100.00,ESE,113,7.0,12.0,61,0.00,,,0.01,428.000000,,2013-04-14 02:22:00,
2013-04-13 16:32:00,79.0,64.0,-100.00,ESE,113,7.0,12.0,61,0.00,,,0.01,428.000000,,2013-04-14 02:32:00,
2013-04-13 16:42:00,79.0,64.0,-100.00,ESE,113,7.0,12.0,61,0.00,,,0.01,428.000000,,2013-04-14 02:42:00,
2013-04-13 17:02:00,79.0,64.0,-100.00,ESE,109,6.0,12.0,60,0.00,,,0.01,496.000000,,2013-04-14 03:02:00,
2013-04-13 17:12:00,79.0,64.0,-100.00,ESE,109,6.0,12.0,60,0.00,,,0.01,496.000000,,2013-04-14 03:12:00,
2013-04-13 17:33:00,79.0,64.0,-100.00,ESE,109,6.0,12.0,60,0.00,,,0.01,496.000000,,2013-04-14 03:33:00,
2013-04-13 17:42:00,79.0,64.0,-100.00,ESE,109,6.0,12.0,60,0.00,,,0.01,496.000000,,2013-04-14 03:42:00,
2013-04-13 18:12:00,77.0,63.0,-100.00,SE,133,6.0,9.0,62,0.00,,,0.01,247.000000,,2013-04-14 04:12:00,
2013-04-13 18:22:00,77.0,63.0,-100.00,SE,133,6.0,9.0,62,0.00,,,0.01,247.000000,,2013-04-14 04:22:00,
2013-04-13 18:32:00,77.0,63.0,-100.00,SE,133,6.0,9.0,62,0.00,,,0.01,247.000000,,2013-04-14 04:32:00,
2013-04-13 18:42:00,77.0,63.0,-100.00,SE,133,6.0,9.0,62,0.00,,,0.01,247.000000,,2013-04-14 04:42:00,
2013-04-13 19:02:00,77.0,63.0,-100.00,SE,132,3.0,8.0,62,0.00,,,0.01,24.000000,,2013-04-14 05:02:00,
2013-04-13 19:12:00,77.0,63.0,-100.00,SE,132,3.0,8.0,62,0.00,,,0.01,24.000000,,2013-04-14 05:12:00,
2013-04-13 19:22:00,77.0,63.0,-100.00,SE,132,3.0,8.0,62,0.00,,,0.01,24.000000,,2013-04-14 05:22:00,
2013-04-13 19:32:00,77.0,63.0,-100.00,SE,132,3.0,8.0,62,0.00,,,0.01,24.000000,,2013-04-14 05:32:00,
2013-04-13 19:42:00,77.0,63.0,-100.00,SE,132,3.0,8.0,62,0.00,,,0.01,24.000000,,2013-04-14 05:42:00,
2013-04-13 20:12:00,75.0,62.0,-100.00,East,91,3.0,6.0,64,0.00,,,0.01,0.000000,,2013-04-14 06:12:00,
2013-04-13 20:22:00,75.0,62.0,-100.00,East,91,3.0,6.0,64,0.00,,,0.01,0.000000,,2013-04-14 06:22:00,
2013-04-13 20:32:00,75.0,62.0,-100.00,East,91,3.0,6.0,64,0.00,,,0.01,0.000000,,2013-04-14 06:32:00,
2013-04-13 20:42:00,75.0,62.0,-100.00,East,91,3.0,6.0,64,0.00,,,0.01,0.000000,,2013-04-14 06:42:00,
2013-04-13 21:12:00,75.0,62.0,-100.00,ESE,113,3.0,6.0,64,0.00,,,0.01,0.000000,,2013-04-14 07:12:00,
2013-04-13 21:22:00,75.0,62.0,-100.00,ESE,113,3.0,6.0,64,0.00,,,0.01,0.000000,,2013-04-14 07:22:00,
2013-04-13 21:32:00,75.0,62.0,-100.00,ESE,113,3.0,6.0,64,0.00,,,0.01,0.000000,,2013-04-14 07:32:00,
2013-04-13 21:42:00,75.0,62.0,-100.00,ESE,113,3.0,6.0,64,0.00,,,0.01,0.000000,,2013-04-14 07:42:00,
2013-04-13 22:12:00,75.0,62.0,-100.00,East,84,3.0,6.0,65,0.00,,,0.01,0.000000,,2013-04-14 08:12:00,
2013-04-13 22:22:00,75.0,62.0,-100.00,East,84,3.0,6.0,65,0.00,,,0.01,0.000000,,2013-04-14 08:22:00,
2013-04-13 22:32:00,75.0,62.0,-100.00,East,84,3.0,6.0,65,0.00,,,0.01,0.000000,,2013-04-14 08:32:00,
2013-04-13 22:42:00,75.0,62.0,-100.00,East,84,3.0,6.0,65,0.00,,,0.01,0.000000,,2013-04-14 08:42:00,
2013-04-13 23:02:00,75.0,62.0,-100.00,ESE,115,4.0,5.0,65,0.00,,,0.01,0.000000,,2013-04-14 09:02:00,
2013-04-13 23:12:00,75.0,62.0,-100.00,ESE,115,4.0,5.0,65,0.00,,,0.01,0.000000,,2013-04-14 09:12:00,
2013-04-13 23:22:00,75.0,62.0,-100.00,ESE,115,4.0,5.0,65,0.00,,,0.01,0.000000,,2013-04-14 09:22:00,
2013-04-13 23:32:00,75.0,62.0,-100.00,ESE,115,4.0,5.0,65,0.00,,,0.01,0.000000,,2013-04-14 09:32:00,
2013-04-13 23:42:00,75.0,62.0,-100.00,ESE,115,4.0,5.0,65,0.00,,,0.01,0.000000,,2013-04-14 09:42:00,